Cedar Bluff, VA

11:39 AM EDT on August 28, 2016 (GMT -0400)
Tazewell County

Weather History for KJFZ - March, 2013

Change the Weather History Date:

Saturday, March 2, 2013

  Actual Average (KBLF) Record (KBLF)
Temperature  
Mean Temperature 24 °F 41 °F  
Max Temperature 28 °F 50 °F 71 °F (1976)
Min Temperature 19 °F 32 °F 3 °F (1980)
Degree Days  
Heating Degree Days 40 24  
Month to date heating degree days 48  
Since 1 July heating degree days 3541  
Cooling Degree Days 0 0  
Month to date cooling degree days 0  
Year to date cooling degree days 0  
Moisture  
Dew Point 23 °F    
Average Humidity 95    
Maximum Humidity 100    
Minimum Humidity 86    
Precipitation  
Precipitation 0.00 in 0.11 in 0.96 in (1960)
Month to date precipitation 0.22  
Year to date precipitation 5.88  
Snow  
Snow 0.00 in - - ()
Month to date snowfall  
Since 1 July snowfall  
Snow Depth -    
Sea Level Pressure  
Sea Level Pressure 29.85 in    
Wind  
Wind Speed 5 mph (NW)    
Max Wind Speed 14 mph    
Max Gust Speed -    
Visibility 7 miles    
Events      
T = Trace of Precipitation, MM = Missing Value Source: NWS Daily Summary

Daily Weather History Graph

Daily Weather History Graph

Search for Another Location

Airport or City:

Trip Planner

Search our weather history database for the weather conditions in past years. The results will help you decide how hot, cold, wet, or windy it might be!

Date:

Astronomy

Mar. 02, 2013 Rise Set
Actual Time 6:56 AM EST 6:22 PM EST
Civil Twilight 6:30 AM EST 6:48 PM EST
Nautical Twilight 6:00 AM EST 7:18 PM EST
Astronomical Twilight 5:30 AM EST 7:48 PM EST
Moon 11:51 PM EST (3/2) 9:31 AM EST (3/2)
Length of Visible Light 12h 18m
Length of Day
11h 26m
Waning Gibbous, 74% of the Moon is Illuminated
Mar 2
Waning Gibbous
Mar 4
Last Quarter
Mar 11
New
Mar 19
First Quarter
Mar 27
Full

Hourly Weather History & Observations

Time (EST) Temp. Windchill Dew Point Humidity Pressure Visibility Wind Dir Wind Speed Gust Speed Precip Events Conditions
12:15 AM 28.4 °F 24.6 °F 26.6 °F 93% 29.86 in 10.0 mi NW 3.5 mph - N/A   Mostly Cloudy
12:35 AM 26.6 °F 21.2 °F 26.6 °F 100% 29.85 in 10.0 mi NNE 4.6 mph - N/A   Scattered Clouds
12:55 AM 26.6 °F 22.6 °F 26.6 °F 100% 29.85 in 10.0 mi Variable 3.5 mph - N/A   Mostly Cloudy
1:35 AM 28.4 °F 24.6 °F 26.6 °F 93% 29.85 in 10.0 mi NNW 3.5 mph - N/A   Mostly Cloudy
1:55 AM 26.6 °F - 26.6 °F 100% 29.84 in 10.0 mi Calm Calm - N/A   Partly Cloudy
2:15 AM 26.6 °F - 24.8 °F 93% 29.84 in 10.0 mi Calm Calm - N/A   Unknown
2:35 AM 28.4 °F - 26.6 °F 93% 29.84 in 10.0 mi Calm Calm - N/A   Unknown
2:55 AM 26.6 °F - 26.6 °F 100% 29.83 in 10.0 mi Calm Calm - N/A   Unknown
3:15 AM 26.6 °F - 24.8 °F 93% 29.83 in 10.0 mi Calm Calm - N/A   Unknown
3:35 AM 26.6 °F - 24.8 °F 93% 29.83 in 10.0 mi Calm Calm - N/A   Unknown
3:55 AM 26.6 °F 22.6 °F 26.6 °F 100% 29.82 in 10.0 mi NNW 3.5 mph - N/A   Unknown
4:15 AM 26.6 °F - 26.6 °F 100% 29.81 in 10.0 mi Calm Calm - N/A   Unknown
4:35 AM 26.6 °F - 26.6 °F 100% 29.81 in 10.0 mi Calm Calm - N/A   Unknown
4:55 AM 26.6 °F 22.6 °F 26.6 °F 100% 29.81 in 10.0 mi North 3.5 mph - N/A   Unknown
5:15 AM 26.6 °F 21.2 °F 24.8 °F 93% 29.81 in 8.0 mi Variable 4.6 mph - N/A   Unknown
5:35 AM 24.8 °F 19.1 °F 24.8 °F 100% 29.81 in 6.0 mi North 4.6 mph - N/A   Unknown
5:55 AM 24.8 °F 20.5 °F 24.8 °F 100% 29.81 in 6.0 mi North 3.5 mph - N/A   Unknown
6:15 AM 24.8 °F 20.5 °F 24.8 °F 100% 29.82 in 4.0 mi North 3.5 mph - N/A   Unknown
6:35 AM 24.8 °F - 24.8 °F 100% 29.82 in 3.0 mi Calm Calm - N/A   Clear
7:35 AM 24.8 °F 20.5 °F 24.8 °F 100% 29.82 in 4.0 mi NW 3.5 mph - N/A   Clear
7:55 AM 24.8 °F 20.5 °F 24.8 °F 100% 29.83 in 4.0 mi Variable 3.5 mph - N/A   Clear
8:15 AM 24.8 °F 19.1 °F 24.8 °F 100% 29.84 in 3.0 mi Variable 4.6 mph - N/A   Clear
8:35 AM 24.8 °F 19.1 °F 24.8 °F 100% 29.85 in 3.0 mi Variable 4.6 mph - N/A   Clear
8:55 AM 24.8 °F 19.1 °F 24.8 °F 100% 29.84 in 2.0 mi NNW 4.6 mph - N/A   Clear
9:15 AM 24.8 °F 16.9 °F 24.8 °F 100% 29.84 in 2.0 mi NNW 6.9 mph - N/A   Clear
9:35 AM 24.8 °F 17.9 °F 24.8 °F 100% 29.84 in 3.0 mi NW 5.8 mph - N/A   Clear
9:55 AM 24.8 °F 20.5 °F 24.8 °F 100% 29.85 in 6.0 mi Variable 3.5 mph - N/A   Unknown
10:15 AM 24.8 °F 19.1 °F 24.8 °F 100% 29.85 in 4.0 mi Variable 4.6 mph - N/A   Unknown
10:35 AM 26.6 °F 20.0 °F 24.8 °F 93% 29.84 in 10.0 mi Variable 5.8 mph - N/A   Unknown
10:55 AM 26.6 °F 19.1 °F 24.8 °F 93% 29.84 in 7.0 mi NW 6.9 mph - N/A   Unknown
11:15 AM 26.6 °F 18.2 °F 23.0 °F 86% 29.84 in 9.0 mi WNW 8.1 mph - N/A   Unknown
11:35 AM 26.6 °F 20.0 °F 23.0 °F 86% 29.85 in 10.0 mi NW 5.8 mph - N/A   Unknown
11:55 AM 26.6 °F 20.0 °F 23.0 °F 86% 29.84 in 10.0 mi NW 5.8 mph - N/A   Partly Cloudy
12:15 PM 26.6 °F 16.8 °F 23.0 °F 86% 29.84 in 10.0 mi WNW 10.4 mph - N/A   Unknown
12:35 PM 26.6 °F 17.5 °F 23.0 °F 86% 29.84 in 10.0 mi West 9.2 mph - N/A   Scattered Clouds
12:55 PM 26.6 °F 15.7 °F 23.0 °F 86% 29.84 in 10.0 mi WNW 12.7 mph - N/A   Mostly Cloudy
1:35 PM 26.6 °F 17.5 °F 23.0 °F 86% 29.82 in 9.0 mi NW 9.2 mph - N/A   Partly Cloudy
1:55 PM 26.6 °F 18.2 °F 24.8 °F 93% 29.83 in 3.0 mi NW 8.1 mph - N/A   Partly Cloudy
2:15 PM 24.8 °F 14.6 °F 24.8 °F 100% 29.84 in 4.0 mi WNW 10.4 mph - N/A   Partly Cloudy
2:35 PM 24.8 °F 12.9 °F 24.8 °F 100% 29.84 in 5.0 mi NW 13.8 mph - N/A   Unknown
2:55 PM 24.8 °F 15.3 °F 23.0 °F 93% 29.83 in 9.0 mi WNW 9.2 mph - N/A   Partly Cloudy
3:15 PM 24.8 °F 16.1 °F 23.0 °F 93% 29.84 in 6.0 mi NW 8.1 mph - N/A   Unknown
3:35 PM 24.8 °F 14.6 °F 23.0 °F 93% 29.84 in 4.0 mi NW 10.4 mph - N/A   Unknown
3:55 PM 24.8 °F 13.4 °F 21.2 °F 86% 29.84 in 10.0 mi WNW 12.7 mph - N/A   Unknown
4:15 PM 24.8 °F 16.1 °F 21.2 °F 86% 29.84 in 10.0 mi WNW 8.1 mph - N/A   Partly Cloudy
4:35 PM 24.8 °F 17.9 °F 21.2 °F 86% 29.83 in 10.0 mi Variable 5.8 mph - N/A   Scattered Clouds
4:55 PM 24.8 °F 15.3 °F 21.2 °F 86% 29.85 in 8.0 mi WNW 9.2 mph - N/A   Partly Cloudy
5:15 PM 23.0 °F 11.7 °F 21.2 °F 93% 29.85 in 4.0 mi WNW 11.5 mph - N/A   Partly Cloudy
5:35 PM 23.0 °F 11.1 °F 21.2 °F 93% 29.84 in 6.0 mi West 12.7 mph - N/A   Scattered Clouds
5:55 PM 23.0 °F 13.1 °F 21.2 °F 93% 29.86 in 7.0 mi West 9.2 mph - N/A   Scattered Clouds
6:15 PM 21.2 °F 10.9 °F 21.2 °F 100% 29.87 in 3.0 mi WNW 9.2 mph - N/A   Unknown
6:35 PM 21.2 °F 10.9 °F 21.2 °F 100% 29.87 in 8.0 mi WNW 9.2 mph - N/A   Scattered Clouds
6:55 PM 21.2 °F 10.1 °F 21.2 °F 100% 29.88 in 10.0 mi WNW 10.4 mph - N/A   Mostly Cloudy
7:15 PM 21.2 °F 11.7 °F 19.4 °F 93% 29.87 in 10.0 mi WNW 8.1 mph - N/A   Mostly Cloudy
7:35 PM 21.2 °F 10.9 °F 21.2 °F 100% 29.89 in 9.0 mi WNW 9.2 mph - N/A   Partly Cloudy
7:55 PM 21.2 °F 8.9 °F 21.2 °F 100% 29.89 in 3.0 mi WNW 12.7 mph - N/A   Unknown
8:15 PM 21.2 °F 12.6 °F 21.2 °F 100% 29.88 in 6.0 mi Variable 6.9 mph - N/A   Unknown
8:35 PM 21.2 °F 12.6 °F 21.2 °F 100% 29.90 in 5.0 mi West 6.9 mph - N/A   Unknown
8:55 PM 21.2 °F 12.6 °F 21.2 °F 100% 29.90 in 4.0 mi West 6.9 mph - N/A   Unknown
9:15 PM 21.2 °F 11.7 °F 21.2 °F 100% 29.90 in 5.0 mi West 8.1 mph - N/A   Unknown
9:35 PM 21.2 °F 11.7 °F 21.2 °F 100% 29.91 in 10.0 mi WNW 8.1 mph - N/A   Partly Cloudy
9:55 PM 21.2 °F 13.6 °F 19.4 °F 93% 29.90 in 7.0 mi West 5.8 mph - N/A   Partly Cloudy
10:15 PM 21.2 °F 11.7 °F 19.4 °F 93% 29.90 in 10.0 mi WNW 8.1 mph - N/A   Partly Cloudy
10:35 PM 21.2 °F 11.7 °F 17.6 °F 86% 29.90 in 10.0 mi WNW 8.1 mph - N/A   Scattered Clouds
10:55 PM 21.2 °F 14.9 °F 19.4 °F 93% 29.90 in 10.0 mi WNW 4.6 mph - N/A   Scattered Clouds
11:55 PM 19.4 °F 9.5 °F 19.4 °F 100% 29.88 in 9.0 mi WNW 8.1 mph - N/A   Unknown